Location: Asar Burnu
(36.5203°N, 30.5523°E)
Time: 20:49:40
(UTC+00:00)

USA 59 Rocket - Pass Details

Date: 04 August 2024
Orbit: 380 x 1730 km, 63.3° (Epoch: 17 September)

Event Time Altitude Azimuth Distance (km) Brightness Sun altitude
Rises 17:28:24 0° 183° (S) 2,932 3.3 -5.9°
Reaches altitude 10° 17:31:21 10° 168° (SSE) 1,817 2.1 -6.5°
Maximum altitude 17:34:18 21° 119° (ESE) 1,131 0.8 -7.0°
Drops below altitude 10° 17:36:50 10° 68° (ENE) 1,521 1.7 -7.5°
Sets 17:39:02 0° 50° (NE) 2,308 2.8 -7.8°
